Vorticity
nan nan nan nan nan nan nan nan nan nan nan nan nan nan nan nan nan nan nan nan nan nan nan nan nan nan nan nan nan nan nan nan nan nan nan nan nan nan nan nan nan nan nan nan
nan 13 6 9 13 4 1 4 3 8 20 13 11 6 13 9 8 6 5 6 5 6 8 7 6 6 7 9 7 8 6 4 4 5 6 8 9 9 9 10 10 8 8 nan
nan 12 15 6 6 11 6 5 4 4 11 12 13 16 12 6 5 10 8 8 9 10 7 7 6 5 4 8 9 8 8 5 6 3 1 6 7 9 9 9 10 10 9 nan
nan 12 9 5 2 7 8 12 7 4 6 12 4 18 16 15 6 6 6 7 8 8 6 8 8 7 5 6 9 9 9 7 6 6 4 4 6 6 7 9 9 10 10 nan
nan 10 8 4 11 1 7 10 12 11 6 6 3 13 18 15 10 9 6 6 9 8 9 8 8 8 6 6 9 9 9 8 7 6 5 3 5 8 9 10 10 8 9 nan
nan 8 16 8 7 6 7 11 7 11 11 7 15 4 13 15 11 10 8 6 8 10 10 8 8 8 10 6 7 10 9 7 8 7 8 7 4 5 5 8 8 9 10 nan
nan 15 7 21 11 7 5 4 7 9 11 12 14 7 17 14 10 12 10 8 8 9 10 11 10 7 9 9 7 8 9 8 8 7 7 6 7 7 5 4 7 8 7 nan
nan 22 16 5 11 7 7 1 9 11 7 14 9 8 16 18 14 14 12 12 7 4 9 10 11 10 9 10 8 8 8 8 8 8 7 6 6 5 9 7 6 7 9 nan
nan 7 4 17 24 9 9 10 -3 1 10 14 7 9 13 17 18 15 9 10 11 7 8 11 9 10 10 10 10 8 7 8 8 7 7 7 7 7 7 10 7 7 8 nan
nan 14 7 13 22 15 9 8 6 8 11 0 9 12 14 12 13 14 10 9 12 11 5 11 12 9 9 11 9 9 10 9 7 7 6 9 8 6 5 9 10 8 8 nan
nan 11 3 14 22 10 5 7 7 9 8 8 6 8 16 11 14 12 13 11 12 12 8 5 9 12 8 10 13 10 9 8 8 8 8 7 8 9 7 6 8 7 9 nan
nan 10 12 6 4 18 19 15 9 11 6 4 8 7 9 13 13 15 13 11 14 12 10 6 8 11 10 8 11 11 9 9 9 9 8 7 8 9 8 6 7 9 7 nan
nan 6 8 14 14 8 11 13 4 1 14 16 5 6 3 8 12 16 12 10 14 15 12 9 9 11 11 8 10 11 10 9 8 9 8 9 8 8 9 9 7 7 8 nan
nan 8 7 -0 -4 2 -2 -4 8 17 9 8 11 8 5 10 9 10 14 13 11 12 12 11 10 10 11 10 9 10 9 10 10 9 9 8 9 8 8 9 9 7 8 nan
nan 11 10 6 -0 6 6 6 7 11 14 12 11 8 11 13 10 12 12 18 16 15 14 11 9 8 10 9 8 10 10 11 10 9 8 8 8 9 9 9 9 9 8 nan
nan 8 12 11 21 20 15 15 18 23 20 12 13 11 4 11 12 11 20 20 24 24 17 11 9 8 9 9 8 8 10 12 10 9 9 9 9 9 9 9 10 9 9 nan
nan 8 11 8 12 23 22 12 20 25 25 27 13 5 10 12 8 10 16 28 33 25 15 12 11 9 7 9 10 11 10 9 10 9 9 10 10 10 10 9 9 10 10 nan
nan 9 6 10 16 25 2 4 16 -1 2 17 23 23 15 5 -0 2 10 16 19 25 30 21 12 13 11 11 10 10 14 11 10 9 10 10 10 9 10 10 8 9 11 nan
nan 8 7 10 11 13 1 -2 5 -7 -4 1 13 22 21 5 0 -4 4 13 14 15 15 19 20 18 20 15 13 11 10 11 10 11 10 10 10 9 9 10 9 9 9 nan
nan 5 3 9 14 7 -4 -3 16 15 -11 -3 8 9 18 21 8 -3 1 9 11 13 14 14 19 20 14 15 15 10 9 8 10 13 11 10 10 10 10 10 9 9 9 nan
nan 10 12 6 9 6 -2 14 28 23 2 -0 6 9 12 15 11 7 5 9 12 9 11 15 17 14 12 20 20 13 13 9 7 12 15 14 12 10 9 9 10 11 10 nan
nan 10 14 15 15 -2 6 27 27 12 6 7 5 5 11 10 10 10 9 7 7 9 10 14 14 13 13 18 17 15 10 16 19 14 12 11 11 11 13 12 9 11 10 nan
nan 13 13 9 10 1 11 15 6 8 6 7 9 6 7 12 13 10 8 8 8 9 9 10 11 11 12 14 12 10 11 14 16 15 12 13 16 14 12 12 9 10 11 nan
nan 10 11 9 7 2 18 10 -2 1 7 10 11 9 8 8 10 12 9 10 10 8 9 10 9 9 10 11 12 9 11 11 11 12 14 16 14 12 12 15 14 12 11 nan
nan 9 15 15 -2 12 11 -4 2 8 8 10 12 10 9 10 10 11 9 9 10 10 9 11 9 7 8 11 10 9 10 11 9 8 8 12 16 14 10 9 14 17 14 nan
nan nan nan nan nan nan nan nan nan nan nan nan nan nan nan nan nan nan nan nan nan nan nan nan nan nan nan nan nan nan nan nan nan nan nan nan nan nan nan nan nan nan nan nan
CAPE
0 0 0 0 0 0 0 0 0 0 0 62 56 15 688 409 331 284 184 150 197 196 99 11 72 45 23 0 0 0 0 0 80 53 62 0 0 2 109 237 447 518 848 231
0 0 0 0 0 0 0 0 0 0 0 11 68 42 510 473 333 315 247 194 224 179 124 57 86 28 23 0 0 0 0 0 107 31 171 0 0 0 8 54 393 481 696 942
0 0 0 0 0 0 0 0 0 0 0 1 9 50 9 568 461 413 286 218 220 237 135 87 80 105 16 0 0 0 0 0 117 77 2 11 0 7 0 13 215 545 698 1047
0 0 0 0 0 0 0 0 0 0 0 0 0 0 17 279 460 403 374 296 230 251 189 132 95 108 70 0 0 0 0 0 44 47 70 102 6 3 0 0 0 631 804 1004
0 0 0 0 0 0 0 0 0 0 0 0 0 0 0 93 424 389 337 349 350 280 246 192 133 130 114 2 16 0 0 0 0 91 43 20 0 0 0 0 0 247 750 894
0 0 0 0 0 0 0 0 0 0 0 0 0 0 0 5 62 368 402 365 386 347 328 293 191 189 151 59 23 0 0 0 0 66 31 0 15 9 22 41 0 0 469 717
0 0 0 0 0 0 0 0 0 0 0 0 0 0 0 0 0 17 238 378 346 282 322 253 248 224 241 156 43 0 18 15 0 37 81 0 3 0 20 1 5 0 21 361
0 0 0 0 0 0 0 0 0 0 0 0 0 0 0 0 0 19 85 256 215 103 62 299 189 282 293 207 54 60 97 76 53 74 129 71 2 0 3 0 0 0 4 165
0 0 0 0 0 0 0 0 0 0 0 0 0 0 0 0 0 0 31 104 60 98 89 195 242 208 163 160 96 91 102 201 149 152 181 166 92 70 36 0 0 0 0 192
0 0 0 0 0 0 0 0 0 0 0 0 0 0 0 0 0 0 75 102 92 77 99 213 250 177 97 129 142 71 114 227 301 270 274 279 247 208 169 19 0 0 0 48
0 0 0 0 0 0 0 0 0 0 0 0 0 0 0 0 0 0 0 100 137 142 175 132 156 225 154 121 255 170 111 153 284 431 383 376 386 333 308 208 84 75 8 0
5 4 6 0 0 0 0 0 0 0 0 0 0 0 0 0 0 0 0 84 184 232 341 265 93 211 193 107 215 319 237 174 200 455 469 451 496 629 746 481 120 65 207 46
9 11 2 0 0 0 0 0 0 0 0 0 0 0 0 0 0 0 0 0 78 332 428 369 181 217 228 165 154 398 468 405 291 322 548 617 516 384 461 1095 1008 238 17 39
5 12 0 0 0 0 0 0 0 0 0 0 0 0 0 0 0 0 0 0 0 199 381 376 301 256 246 218 183 337 572 590 523 498 506 730 856 794 543 378 728 1103 637 276
0 8 2 0 0 0 0 0 0 0 0 0 0 0 0 0 0 0 0 0 0 0 156 252 334 319 264 229 176 415 518 742 689 666 758 752 945 1070 1089 930 553 557 1069 1001
1 0 0 0 0 0 0 0 0 0 0 0 0 0 0 0 0 11 0 0 0 0 137 250 328 400 340 306 244 406 593 737 906 862 894 947 967 1186 1404 1389 1294 861 673 1103
3 1 0 0 0 0 0 0 0 0 0 0 0 0 0 36 12 1 1 1 0 0 193 272 313 480 473 410 341 364 655 762 1156 1159 1161 1207 1268 1268 1461 1720 1754 1592 1245 1009
1 15 5 0 0 1 0 0 0 0 0 0 0 0 28 7 0 0 0 5 24 0 98 246 387 629 582 546 459 389 616 836 1137 1477 1538 1607 1662 1720 1673 1695 1912 1989 1884 1630
1 12 4 0 0 0 0 0 0 0 0 0 0 0 0 0 0 0 0 0 0 0 76 58 231 489 574 694 564 464 564 710 1100 1344 1682 1812 1909 1900 2055 2075 1996 2124 2208 2261
3 5 15 4 6 3 0 0 0 0 0 0 0 0 0 0 0 0 0 0 0 0 57 119 393 97 505 562 644 585 580 674 839 1138 1603 1809 1960 2156 2167 2355 2384 2304 2372 2375
25 22 9 17 13 5 0 0 0 0 0 0 0 0 0 0 0 0 0 0 0 0 0 227 1251 768 392 3 844 877 825 852 891 903 977 1266 2063 2212 2433 2471 2521 2623 2592 2622
15 12 15 11 17 10 0 0 0 0 0 0 0 0 0 0 0 0 0 0 0 0 0 0 732 1627 1042 4 396 552 1031 434 1400 1324 1035 1067 1232 1840 2240 2442 2633 2651 2741 2820
8 7 10 7 3 10 1 0 0 0 0 0 0 0 0 0 0 0 0 0 0 0 0 0 1 635 1355 1967 2156 2414 2251 1853 1136 1425 1640 1826 1700 1581 1583 2194 2404 2566 2625 2685
1 1 2 0 0 0 0 0 0 0 0 0 0 0 0 0 0 0 0 0 0 0 0 0 0 0 105 997 1380 1603 1864 2018 2360 2642 2145 1714 1739 2099 2131 2160 2175 2244 2483 2633
15 7 3 1 0 0 0 0 0 0 0 0 0 0 0 0 0 0 0 0 0 0 0 0 0 0 0 198 952 1003 1239 1287 1490 1823 1925 2230 2578 1744 1725 806 1121 2082 2395 2030
11 5 4 1 0 3 0 0 0 0 0 0 0 0 0 0 0 0 0 0 0 0 0 0 0 0 0 0 247 788 771 874 890 877 1180 1144 1306 2527 1211 1 1 0 1 2